GFSWCAN_250_spd_000.txt.gz
Wind_Speed
27 29 32 33 35 37 40 42 43 42 41 40 40 40 42 45 49 54 59 62 67 73 76 84 90 101 107 106 99 97 93 89 88 85 80 77 75 73 69 64 61 60 56 56 56 52 51 47 42 44 45 45 42 41
25 28 29 29 30 32 35 36 37 36 34 34 34 31 31 34 37 41 45 49 56 62 68 77 84 96 103 108 108 104 102 96 93 91 88 82 78 73 67 68 67 63 64 63 64 59 56 55 52 53 53 55 52 53
21 26 29 30 29 30 32 32 33 32 31 29 29 24 22 24 26 28 32 37 43 50 57 66 75 82 91 104 110 110 107 101 95 95 89 87 86 77 75 77 69 70 67 69 64 61 58 57 67 62 61 64 61 61
20 24 28 31 31 31 31 32 33 31 30 27 24 23 22 20 19 18 21 26 31 39 46 55 66 74 81 92 104 109 108 101 102 96 92 93 91 87 86 80 77 75 76 75 72 65 62 66 75 72 73 67 65 66
21 23 26 30 33 32 34 34 33 31 31 28 27 23 18 16 14 11 10 14 20 27 35 44 53 64 72 80 92 99 105 105 106 102 101 98 96 91 88 84 83 84 82 80 76 72 66 57 65 70 64 66 69 69
25 26 29 31 33 33 35 34 32 32 34 32 29 22 19 14 10 7 6 6 9 15 23 32 43 52 62 71 77 84 92 101 105 105 104 101 97 93 92 88 92 92 86 83 81 79 76 77 73 75 78 74 74 77
30 28 31 34 35 35 34 34 32 33 34 31 27 25 20 16 13 12 13 11 11 10 13 20 27 37 48 59 67 73 77 84 91 97 101 103 102 97 97 95 97 99 92 86 87 87 88 89 89 90 90 87 83 73
33 31 32 37 36 37 36 35 33 33 38 32 29 26 22 19 17 16 17 17 16 15 13 13 18 24 32 41 51 59 63 65 68 75 83 89 93 96 97 97 101 101 97 93 94 94 91 91 87 88 89 92 91 94
36 35 33 37 40 39 37 36 36 35 39 35 33 26 24 22 19 18 18 19 19 17 17 16 16 15 19 24 30 39 46 51 53 56 60 64 68 70 74 84 87 91 93 92 93 91 91 87 82 83 77 66 88 93
42 40 38 36 42 41 40 39 37 37 40 39 32 29 26 23 21 20 18 17 17 16 15 15 16 17 17 18 20 23 25 28 33 40 42 44 49 56 63 69 74 77 81 82 82 83 85 85 78 88 79 75 80 76
44 45 44 39 42 45 42 42 40 41 42 42 35 31 27 25 24 23 20 17 16 14 13 13 12 11 11 13 15 15 17 19 22 24 24 30 40 48 51 57 61 63 64 65 67 72 75 77 77 84 87 93 90 90
43 45 48 45 42 46 46 43 42 42 45 45 39 35 30 27 27 25 22 19 18 16 15 14 13 14 14 14 14 15 16 19 22 25 30 35 40 44 48 52 53 57 59 64 69 74 79 80 82 85 83 85 83 79
42 44 48 49 45 46 48 45 45 42 46 46 41 38 33 31 29 26 23 21 21 20 17 16 17 16 16 18 19 21 23 26 28 31 34 38 40 43 48 52 55 55 59 62 65 67 70 74 80 83 81 82 80 74
39 44 48 50 47 45 47 47 46 44 46 46 41 39 34 32 31 28 24 22 23 22 21 19 18 18 19 20 21 23 25 27 27 29 29 34 37 42 42 40 40 42 49 47 45 44 47 55 54 54 54 58 62 63
33 42 47 50 50 46 46 47 47 45 44 45 42 39 35 32 30 28 27 24 22 21 20 20 21 22 23 24 24 27 28 25 22 23 27 27 26 27 27 22 24 31 31 25 29 32 35 32 33 36 37 39 43 49
29 35 46 50 51 49 46 46 46 45 42 40 43 39 35 32 29 26 25 22 20 20 22 23 25 27 28 27 26 26 23 21 21 21 20 20 16 16 11 9 10 17 19 22 21 19 21 24 25 23 24 28 32 38
29 33 40 50 52 51 47 44 43 44 41 36 36 36 31 28 26 24 20 21 22 22 22 24 24 21 21 22 19 17 17 15 13 12 16 17 16 17 15 15 14 13 15 18 20 19 20 20 19 19 20 22 25 27
29 32 36 45 52 51 49 44 41 42 41 35 32 29 25 23 19 16 16 14 16 19 17 16 12 12 15 16 19 17 14 11 13 18 25 25 25 24 22 20 20 20 20 20 21 20 19 19 19 21 23 25 26 28
29 32 35 43 53 52 49 45 40 39 39 34 30 28 25 20 17 14 11 11 12 10 8 23 29 29 29 27 25 23 23 21 17 18 22 23 21 22 23 22 21 20 20 20 20 21 22 22 22 22 22 21 21 21
30 34 38 44 54 55 50 45 39 37 38 35 31 27 23 20 16 13 8 7 7 17 32 34 33 31 30 28 25 24 22 21 19 19 19 18 20 19 18 18 20 20 19 18 16 15 14 14 14 15 16 16 15 16
34 37 41 49 56 56 51 44 39 38 39 37 32 28 24 18 11 4 1 15 29 33 34 33 33 31 29 28 27 25 23 22 20 17 15 16 15 16 15 14 13 13 14 15 14 13 12 12 13 14 15 17 18 21
36 39 47 53 56 55 49 44 41 40 39 36 33 28 22 15 7 9 23 31 34 34 35 34 32 29 27 27 26 25 24 21 19 18 16 14 13 11 11 13 14 15 15 15 15 14 14 15 16 18 20 21 23 26
39 46 54 56 56 51 47 43 42 40 38 35 31 24 17 12 13 26 39 39 38 34 33 31 30 26 24 24 26 26 24 22 21 20 19 17 15 15 13 13 14 14 15 17 18 18 17 19 21 23 24 26 29 31
49 54 56 56 52 48 44 43 41 38 35 31 26 21 17 23 31 35 34 33 32 31 29 27 27 25 22 22 22 22 22 19 19 19 20 21 20 18 18 18 19 19 18 19 21 22 25 26 28 29 30 32 34 36
55 55 54 51 46 43 42 41 38 35 31 27 23 21 26 30 35 36 38 36 33 28 27 25 23 22 21 20 18 18 15 14 15 14 15 15 18 19 20 22 22 23 23 24 25 27 28 30 32 31 31 33 35 38
51 49 47 43 42 42 40 37 34 32 28 25 25 28 37 39 39 40 38 36 33 30 27 24 22 21 22 19 17 16 14 16 17 15 14 15 16 17 19 21 23 25 26 26 28 29 30 32 34 36 37 37 37 39
45 43 43 43 41 39 36 32 31 28 28 36 39 40 39 37 36 34 33 35 31 28 26 23 19 17 16 15 13 12 12 14 15 14 13 14 14 15 18 20 23 24 25 25 26 28 30 32 34 35 37 40 42 45
40 40 41 38 35 32 31 30 28 29 33 44 43 43 39 36 33 33 29 28 24 24 21 20 20 20 18 16 15 13 12 14 16 18 18 19 20 21 21 21 22 23 25 29 31 33 35 38 39 41 45 48 50 53
37 36 33 30 28 26 26 27 28 30 35 45 42 40 36 36 30 29 26 25 26 24 22 21 20 19 18 18 17 16 17 18 20 22 22 23 24 25 27 28 29 31 33 35 38 39 41 43 46 48 50 54 58 60
32 30 27 25 23 22 20 21 25 29 32 34 35 35 34 31 30 29 26 23 23 20 19 18 18 17 17 17 18 20 21 22 23 24 25 26 28 29 29 30 33 35 37 39 41 43 45 48 51 54 57 60 63 65
25 24 23 23 22 21 22 26 29 27 25 26 32 28 25 28 29 27 24 24 23 22 22 21 21 20 20 20 20 21 22 23 24 26 28 28 29 29 30 32 35 37 38 40 42 45 47 51 53 54 51 47 45 45
21 22 22 22 22 25 29 31 30 29 29 30 29 30 30 30 29 29 27 27 28 27 25 25 24 22 21 21 22 24 25 26 26 26 26 28 31 32 33 34 35 37 40 42 42 39 35 32 34 37 41 45 47 50
18 20 22 23 25 30 32 30 30 30 31 32 31 31 31 31 30 28 26 26 25 25 25 24 25 25 26 27 27 27 27 27 28 29 31 32 32 32 33 34 32 30 27 24 25 30 34 36 39 42 45 47 49 52

GFSWCAN_250_spd_006.txt.gz
Wind_Speed
42 41 38 37 36 34 31 31 33 37 43 48 54 59 60 63 68 72 77 83 85 83 83 86 89 91 91 91 90 87 87 83 77 76 72 69 66 63 60 57 50 43 38 39 40 38 36 31 30 31 30 30 30 26
43 40 36 34 32 29 29 30 30 33 39 43 47 50 53 53 55 58 61 65 70 77 84 86 85 85 87 91 96 94 93 90 85 84 80 78 75 71 65 61 56 51 45 44 41 40 39 41 36 36 34 34 33 31
43 40 36 33 30 28 29 31 31 31 35 39 42 43 45 46 48 48 49 51 55 60 66 70 73 78 84 89 93 96 101 101 94 93 88 86 83 80 74 69 63 57 53 50 50 47 46 45 41 42 42 39 37 38
42 40 37 33 29 27 30 31 33 32 32 36 39 39 40 40 40 40 41 42 44 48 52 56 62 67 72 78 87 93 97 101 101 100 98 94 92 90 82 76 72 68 65 62 61 58 56 53 50 46 46 47 45 46
43 40 38 35 30 27 30 31 32 34 33 33 35 37 37 36 34 34 34 36 39 41 44 47 52 58 63 68 75 82 88 97 96 99 102 100 98 96 90 85 82 76 72 71 69 66 65 61 60 59 55 51 45 48
41 40 38 35 31 28 31 32 31 34 34 33 33 34 33 32 31 29 27 25 26 27 28 31 36 45 52 58 65 72 79 88 90 96 99 102 103 103 99 95 90 85 80 79 77 73 70 69 68 64 62 62 61 62
37 39 38 35 33 29 31 33 32 33 34 34 33 31 30 29 26 21 18 17 17 18 20 21 24 28 39 47 54 64 69 74 77 87 94 98 104 106 103 99 94 91 88 85 83 80 79 75 73 70 70 68 69 70
34 37 39 36 34 30 32 34 34 35 34 34 32 30 29 27 22 18 15 14 12 12 11 14 19 22 28 35 41 49 58 64 69 76 84 92 95 98 102 101 100 97 95 94 91 88 84 80 79 77 76 74 74 76
32 34 37 37 36 32 33 36 36 36 35 34 32 30 31 27 22 18 15 12 9 5 4 6 8 13 19 25 31 37 44 53 60 68 76 79 81 84 93 103 106 102 100 98 95 91 88 86 84 82 80 78 79 80
31 34 35 37 37 34 35 37 38 38 38 36 33 33 32 26 22 20 17 14 13 12 11 9 9 8 9 14 19 26 33 41 51 59 62 68 66 69 83 94 100 101 100 99 98 94 93 91 89 87 86 86 86 86
30 34 35 37 37 34 37 41 39 38 37 34 36 35 31 27 25 25 21 19 18 17 16 16 16 16 13 12 11 16 23 30 36 40 46 53 58 59 63 71 79 89 97 98 97 98 95 92 91 91 91 90 90 90
29 33 35 37 37 35 39 42 41 39 37 37 39 36 32 29 28 28 24 22 20 18 17 16 16 18 20 20 16 14 14 20 27 34 39 41 46 50 55 61 65 70 78 84 87 87 90 92 92 94 96 97 95 94
30 34 36 38 38 37 41 42 42 41 39 40 40 36 32 31 29 28 27 24 20 17 16 15 15 15 15 16 18 18 16 15 16 19 22 26 32 38 44 49 53 57 62 67 72 75 76 81 86 91 90 90 92 93
32 35 38 40 39 39 43 45 43 43 40 43 40 35 31 31 30 28 26 24 20 17 15 13 12 11 12 12 12 13 13 13 13 13 13 14 18 24 31 35 38 41 44 48 52 56 58 64 67 70 69 71 73 77
32 36 39 40 39 41 44 45 43 43 41 43 42 34 33 32 29 28 25 22 20 16 14 14 12 11 10 10 10 10 10 9 9 9 9 10 12 15 18 21 26 30 35 39 43 44 46 47 54 62 63 63 66 70
33 37 41 42 40 41 45 45 43 42 40 41 42 34 32 30 28 28 25 21 19 17 16 15 14 11 11 10 10 8 8 8 8 9 11 14 17 22 26 29 33 37 39 41 42 43 45 48 56 58 60 61 62 62
34 39 43 42 42 40 44 44 42 39 39 40 40 36 34 30 27 26 23 21 19 17 16 16 15 14 14 14 13 14 13 12 14 16 18 21 23 23 23 24 30 31 34 37 39 42 43 49 54 58 60 62 63 61
38 42 44 42 41 40 44 43 42 38 37 39 39 34 30 27 23 20 20 19 17 16 16 16 16 15 16 16 17 17 17 16 16 17 18 17 17 19 21 23 24 18 15 17 26 25 25 26 32 38 38 38 38 37
41 43 45 43 41 40 45 42 41 38 36 37 36 31 26 22 19 16 16 15 14 14 14 15 17 19 20 19 17 15 14 13 12 13 12 9 7 3 3 5 7 8 11 13 13 12 12 14 15 16 16 17 17 19
45 46 46 44 41 43 46 42 39 36 31 31 31 28 24 22 17 13 12 9 11 11 12 11 11 16 18 17 16 16 15 15 14 14 13 13 9 8 8 7 7 5 4 4 5 5 5 5 5 6 7 8 9 10
47 48 47 45 44 47 45 40 37 32 31 30 30 28 23 18 16 14 12 9 6 4 12 19 23 29 29 27 25 23 21 19 20 18 17 15 13 12 11 10 11 10 9 10 9 8 6 5 5 6 7 8 9 10
49 50 50 47 46 45 43 41 38 34 33 32 30 27 24 21 19 14 8 10 18 25 31 30 30 31 29 27 24 22 20 20 18 18 17 15 13 12 11 9 8 7 8 7 6 6 6 6 6 7 7 8 10 12
55 52 48 46 47 46 44 42 39 37 35 33 30 26 23 20 13 11 22 27 28 27 27 26 25 25 24 22 21 20 19 17 15 14 13 11 8 7 7 5 3 2 2 2 3 4 6 7 9 11 12 14 15 17
51 48 48 47 48 48 46 42 39 37 34 31 27 23 20 14 18 24 28 29 26 25 24 23 22 21 20 19 16 14 14 14 12 11 10 8 6 4 3 2 3 4 5 6 8 10 12 13 14 15 17 20 22 25
51 48 47 48 49 48 45 42 38 35 32 28 25 21 15 16 28 30 32 28 24 22 21 21 20 19 17 16 15 13 11 9 7 6 5 5 6 6 7 9 10 12 13 15 16 17 18 20 21 23 26 28 30 33
48 46 46 47 47 45 43 39 35 32 29 26 23 18 16 23 29 31 31 28 23 20 19 19 17 17 15 14 14 12 10 10 9 11 12 12 11 11 10 11 12 13 14 15 17 18 20 22 24 26 28 31 34 37
43 41 43 44 42 40 37 34 31 27 24 21 19 19 20 22 26 25 25 24 20 17 16 17 15 12 9 8 8 10 10 9 9 9 9 10 9 9 10 10 10 11 13 16 19 22 24 26 28 31 34 36 39 41
38 38 38 38 37 35 32 28 25 23 19 17 21 25 23 22 24 25 21 20 18 15 13 13 14 11 10 9 9 7 8 9 10 11 11 12 12 13 14 15 17 20 25 27 27 29 32 35 38 39 40 41 42 43
33 33 32 31 30 27 24 22 23 21 16 20 23 30 26 24 22 23 22 20 18 16 14 9 8 10 10 8 8 8 7 9 10 11 12 13 15 17 19 21 24 26 30 32 35 37 37 37 37 39 40 42 43 43
28 27 26 25 24 23 23 21 20 15 20 20 18 27 33 28 24 23 21 19 17 14 13 11 11 11 10 10 10 10 10 11 12 13 16 17 19 20 23 26 29 33 34 34 35 37 39 39 38 37 34 32 33 37
21 19 18 19 18 20 19 18 19 23 22 20 14 12 17 20 21 20 19 17 17 18 14 13 14 15 14 13 13 12 12 14 16 18 20 21 23 26 30 32 34 34 33 34 35 35 32 27 26 32 36 38 41 44
18 18 15 15 15 13 15 19 24 28 26 23 21 16 14 12 13 12 16 17 16 15 15 15 16 15 15 15 15 16 18 20 22 25 26 27 30 31 32 33 32 32 33 30 26 24 26 30 33 36 40 42 44 46
16 15 15 15 17 16 13 15 19 29 30 24 20 18 15 13 14 15 16 15 18 19 19 18 18 19 21 21 22 24 26 27 29 31 32 31 30 30 30 30 27 22 18 19 23 28 31 32 33 36 40 42 44 46

GFSWCAN_250_spd_009.txt.gz
Wind_Speed
51 48 45 42 42 41 40 40 38 38 41 44 48 53 61 69 75 83 89 89 86 84 89 90 89 88 84 83 83 79 77 71 69 68 67 63 58 55 50 46 46 46 43 41 42 40 39 42 36 35 36 34 39 41
48 48 44 41 40 39 37 35 34 34 34 36 40 45 52 59 66 72 79 83 84 84 83 86 89 86 86 88 88 87 83 78 74 74 72 69 67 64 60 56 52 50 46 42 40 42 43 46 42 42 43 44 44 42
42 42 43 41 38 36 35 32 30 28 29 31 35 40 46 51 57 63 67 71 76 81 84 84 83 85 86 91 93 93 90 87 84 78 78 76 75 73 70 65 60 55 51 46 44 45 46 46 50 45 47 49 49 49
36 38 39 40 37 34 33 31 28 27 29 31 33 37 41 44 49 53 56 58 62 67 71 76 80 83 85 88 91 96 95 93 91 85 86 83 81 81 79 74 70 63 59 54 51 49 52 53 54 50 49 49 50 51
34 35 37 39 35 33 32 30 27 27 30 30 31 35 37 40 42 45 47 49 51 53 57 62 66 73 78 84 89 93 97 100 99 96 91 89 88 88 85 83 80 74 68 65 61 59 57 57 57 55 53 54 54 53
31 32 35 37 35 33 32 29 27 28 30 31 31 34 36 37 38 40 42 44 45 46 47 51 53 58 63 69 77 86 93 96 96 98 98 97 95 95 92 90 86 83 78 74 71 67 65 62 60 58 58 58 57 55
30 30 32 35 34 32 31 29 27 28 30 32 31 33 36 35 36 37 37 37 38 38 39 41 45 51 53 58 64 71 78 84 89 92 94 96 100 102 99 95 92 90 88 83 79 76 74 70 68 66 65 64 62 61
29 30 31 34 34 33 31 29 27 28 31 33 33 34 35 36 35 33 32 31 30 29 26 29 34 38 43 47 53 60 64 69 74 79 86 91 95 97 99 102 98 96 94 93 89 83 80 77 75 73 72 70 70 68
27 29 32 35 34 33 31 29 29 30 32 34 35 35 35 34 32 29 27 24 20 16 15 17 18 24 26 29 36 45 50 56 61 68 73 75 80 89 99 102 106 107 102 100 95 90 86 82 81 81 80 77 78 75
26 29 33 36 35 34 32 30 32 33 34 34 36 36 35 32 30 29 23 18 15 13 10 10 10 15 17 19 23 29 36 41 48 56 59 64 71 79 84 92 99 104 106 103 99 95 93 91 89 88 87 85 85 83
26 30 34 36 36 34 32 31 34 35 36 38 40 39 36 36 32 27 22 19 17 14 12 9 6 4 6 8 14 20 25 30 35 41 47 55 61 65 70 73 83 90 94 98 100 98 97 97 95 94 93 91 90 90
27 31 36 36 36 35 33 33 37 39 39 41 41 40 39 36 32 28 25 22 19 17 15 13 12 11 6 4 5 10 15 19 24 30 37 44 51 55 56 58 61 74 86 93 97 101 102 100 100 99 99 97 97 98
28 33 37 36 37 36 34 36 39 42 43 43 43 43 40 36 33 30 27 24 22 18 15 13 13 14 15 17 14 8 7 11 16 21 27 33 38 41 41 40 43 50 63 74 84 91 95 96 98 101 101 101 101 102
30 36 39 37 39 38 37 39 43 44 44 44 46 42 39 36 35 31 29 26 22 19 16 14 12 12 13 16 20 21 19 13 10 12 17 22 26 30 33 36 40 47 53 59 65 71 76 83 86 89 93 96 99 102
33 38 40 39 40 38 40 43 45 45 44 48 46 41 37 36 34 32 29 24 20 18 15 13 11 11 12 13 13 14 17 19 20 19 16 13 14 17 20 24 29 33 39 42 45 48 53 57 59 64 70 76 80 82
36 40 41 41 40 40 43 45 47 44 47 48 44 39 36 35 33 30 27 24 21 18 15 13 11 9 9 9 8 8 10 11 9 8 9 9 9 10 12 15 20 24 31 35 39 41 43 44 47 50 54 59 62 64
38 41 43 42 39 42 45 46 46 46 50 45 40 36 34 34 33 30 27 24 22 19 16 13 10 8 6 5 4 3 1 1 1 2 4 6 7 9 13 15 16 19 20 20 23 27 31 36 40 45 51 53 53 55
42 44 44 41 42 45 47 48 48 48 50 44 39 34 32 32 30 28 24 21 18 16 14 13 12 11 9 7 5 6 6 7 8 9 10 10 10 11 12 15 15 19 21 25 30 34 36 37 40 44 48 48 47 50
45 47 46 43 46 48 48 48 46 46 48 42 35 34 31 29 27 24 21 18 16 15 13 13 13 13 12 12 11 10 9 9 9 9 9 9 10 11 12 11 12 13 11 12 16 19 23 28 30 35 38 38 39 39
49 48 45 48 50 49 48 45 43 42 45 41 34 31 29 25 20 15 13 14 13 12 12 14 16 17 17 15 12 11 10 8 7 7 7 11 13 14 12 12 10 8 7 7 7 7 8 10 10 11 13 13 12 11
50 49 48 52 50 48 44 41 40 41 43 39 33 29 24 19 13 10 9 8 8 10 12 14 14 15 15 14 11 12 15 18 22 23 21 20 18 17 15 13 12 12 12 12 12 12 12 11 11 11 11 11 12 13
51 48 50 51 47 46 43 41 40 40 39 35 30 25 22 18 14 11 7 3 3 10 15 19 23 24 27 31 30 26 24 23 21 21 20 18 16 15 14 13 12 10 9 8 7 6 6 6 6 7 8 9 10 10
48 48 51 49 48 46 41 39 39 38 35 32 29 25 22 19 15 11 13 16 21 26 29 30 33 33 33 31 28 25 23 21 20 19 18 15 12 11 9 9 9 7 5 3 2 0 2 4 6 8 10 13 15 17
47 51 51 48 47 44 41 39 37 35 33 31 29 26 23 19 19 20 22 25 28 29 28 28 29 29 27 27 24 21 19 17 16 14 12 10 8 7 6 4 3 2 2 3 4 5 7 9 11 13 16 18 20 22
49 50 48 46 44 41 38 36 35 34 32 30 27 24 21 25 27 27 27 26 25 24 23 22 21 20 20 19 17 16 14 12 10 8 6 4 2 1 3 5 7 8 10 11 13 15 17 18 20 21 23 25 27 29
47 48 46 43 40 38 36 34 32 31 30 26 23 19 26 28 28 28 30 25 21 18 17 16 14 12 12 10 9 8 7 6 3 2 3 5 7 8 9 10 12 14 15 16 17 18 19 20 22 25 27 29 31 33
44 43 41 38 36 33 31 30 28 27 25 21 21 26 28 28 27 24 27 26 22 18 15 14 12 11 9 8 6 5 3 4 6 8 8 8 9 11 12 13 14 14 13 14 16 19 22 23 26 29 32 35 37 38
39 38 36 34 33 31 30 26 23 21 18 17 21 30 32 33 27 23 23 24 22 20 18 14 11 9 8 8 8 8 8 8 8 8 9 10 10 11 12 13 14 16 19 22 25 26 28 30 32 33 34 35 36 37
33 32 31 31 29 27 25 22 21 18 17 15 21 26 29 29 29 25 21 21 22 20 16 13 11 9 8 8 8 7 7 8 10 10 9 9 10 13 16 18 19 21 24 28 30 31 33 34 35 35 33 31 29 29
28 27 26 24 23 22 20 20 21 20 20 19 19 19 21 20 20 18 16 14 12 10 10 12 12 10 9 8 8 9 10 9 8 9 11 13 15 18 20 21 23 27 31 32 33 33 33 32 28 24 25 29 31 33
24 22 21 19 17 16 14 14 16 12 15 15 15 18 17 15 17 17 16 14 12 11 10 9 11 12 12 11 12 13 12 11 12 14 17 19 21 25 27 28 31 32 33 33 32 31 26 22 24 27 28 29 32 37
18 17 17 17 18 17 14 11 11 10 12 12 12 12 17 20 17 16 16 16 17 18 16 14 14 14 14 15 15 16 16 16 18 21 23 25 28 31 33 34 32 30 30 28 21 17 21 24 26 28 32 36 40 44
14 14 15 14 13 12 15 15 14 14 13 13 13 14 12 14 14 14 13 14 16 17 17 17 18 18 19 19 19 20 22 24 25 28 29 31 34 34 32 32 30 24 16 13 17 20 22 25 29 33 36 39 43 46

GFSWCAN_250_spd_015.txt.gz
Wind_Speed
26 27 27 31 38 45 48 46 50 50 50 57 65 70 69 72 80 87 88 87 86 90 90 87 87 84 82 80 75 70 69 66 64 62 59 56 53 51 49 45 41 38 35 34 32 30 28 26 22 27 27 27 30 35
23 26 27 28 34 41 47 47 46 48 47 49 54 59 63 64 68 74 84 88 88 89 91 93 89 88 88 86 82 79 75 71 69 67 64 61 59 57 56 51 47 44 41 38 38 35 34 29 22 25 30 33 35 36
22 25 25 27 30 37 43 47 48 46 46 47 48 50 54 59 64 66 71 78 85 90 91 90 93 94 89 87 87 86 80 77 73 71 68 66 63 63 61 57 53 50 48 44 42 40 38 34 29 26 29 32 34 37
24 25 25 25 28 32 40 46 47 47 46 46 47 49 52 53 56 60 63 65 70 79 87 90 88 91 92 94 92 88 88 83 78 75 73 70 68 67 65 62 60 56 53 49 47 46 45 39 34 34 32 34 38 39
25 25 26 23 26 30 37 43 46 45 45 44 44 45 47 49 51 55 58 60 62 64 70 81 88 89 90 89 91 92 88 86 85 83 79 76 73 72 69 69 66 65 62 58 55 53 50 47 43 40 39 34 38 42
26 26 26 23 25 28 34 41 44 45 43 41 40 41 40 42 45 48 51 54 57 59 60 65 75 84 87 86 86 89 92 91 87 84 81 80 80 77 76 75 74 73 69 65 61 58 57 54 52 49 47 45 43 37
28 27 26 24 25 28 33 39 43 44 42 39 37 36 34 33 35 38 42 46 50 54 56 59 63 69 78 85 86 85 87 90 91 91 89 87 84 81 79 78 80 78 76 71 67 62 59 60 59 58 54 53 51 48
28 27 25 24 26 28 33 39 42 43 41 37 34 30 28 27 28 30 33 37 43 47 50 51 54 58 64 72 79 85 86 86 87 90 91 91 89 87 84 86 83 84 78 77 72 67 65 65 65 63 63 62 60 57
28 26 26 24 26 29 33 39 42 42 40 36 32 27 28 28 28 28 30 32 34 38 40 42 45 49 51 55 61 68 76 82 86 87 87 88 91 91 92 95 93 89 83 83 79 76 75 74 69 68 67 67 66 65
28 26 25 24 27 30 35 39 42 42 38 34 29 28 30 28 28 28 28 27 29 29 29 30 33 34 36 39 43 48 54 62 70 77 85 90 90 89 90 92 93 94 95 89 85 85 83 77 74 74 73 74 74 73
25 25 24 25 29 32 35 40 42 41 38 32 30 32 31 30 30 29 28 27 26 25 24 23 24 25 27 30 33 37 41 47 53 59 65 71 75 78 83 85 86 88 91 92 93 93 89 86 84 86 82 79 78 78
23 23 23 27 30 32 36 42 42 40 35 32 33 33 32 31 31 30 29 28 26 24 22 20 18 16 16 16 20 26 31 36 41 43 46 51 55 60 65 69 72 77 80 84 89 92 93 94 93 89 86 84 83 81
22 22 25 28 32 34 40 42 42 39 34 33 36 35 34 34 34 33 30 28 26 23 21 20 18 16 11 6 5 10 14 19 22 27 31 34 36 38 44 51 57 61 68 75 82 87 89 91 90 92 93 91 88 87
20 23 26 31 33 38 41 42 41 36 35 37 38 38 38 38 36 34 33 31 31 31 29 28 22 21 20 18 16 12 7 5 4 9 13 18 21 25 30 36 45 52 57 63 68 73 79 83 85 86 88 91 93 93
22 25 30 34 38 42 43 42 39 38 39 41 41 42 41 39 40 39 37 37 35 32 28 25 23 21 18 15 14 15 15 17 8 3 8 11 14 17 20 24 31 38 44 48 52 60 66 71 77 82 84 86 89 91
25 30 34 39 42 43 43 41 41 43 45 45 45 44 44 43 42 41 39 34 30 28 26 23 21 18 16 14 13 12 12 15 13 10 9 8 6 9 12 16 21 26 32 38 43 47 52 56 60 65 71 77 81 85
30 35 40 44 45 44 44 46 47 48 48 47 47 47 45 46 44 39 35 30 28 27 26 23 19 17 15 12 10 11 10 10 10 11 15 15 14 13 10 9 10 13 18 22 26 30 35 40 44 48 52 54 59 64
37 42 45 46 46 47 48 49 51 51 50 51 49 47 46 43 39 35 33 32 30 27 24 19 16 12 9 8 7 6 6 6 6 6 6 9 10 11 12 13 13 12 12 12 14 18 23 28 32 34 36 39 41 44
43 46 47 48 49 50 50 52 52 53 51 48 46 45 42 39 36 34 33 31 27 24 20 15 12 9 6 5 3 2 3 3 1 1 2 3 4 5 6 7 7 8 10 12 14 14 15 19 21 23 25 28 30 31
47 48 48 48 49 51 53 52 53 51 47 45 43 41 38 36 33 32 29 25 21 17 14 11 9 8 9 6 2 3 5 3 0 3 6 7 6 6 6 6 6 6 6 8 9 11 12 15 16 17 19 21 23 25
47 47 49 52 54 53 53 53 50 46 44 42 38 37 35 31 28 25 23 19 17 14 12 10 10 9 8 5 4 5 1 3 6 9 10 9 9 9 8 7 6 6 6 5 5 7 9 12 14 16 18 20 22 25
49 53 55 54 54 55 52 48 44 42 41 38 35 33 30 26 23 20 17 15 13 13 12 13 12 11 10 6 4 7 13 16 17 20 21 20 19 18 16 15 14 13 11 11 10 9 8 7 6 6 6 7 8 10
55 53 52 54 54 51 48 44 42 40 38 35 31 28 23 19 16 15 14 14 15 17 17 16 15 13 12 15 17 21 23 24 23 22 22 20 19 17 15 14 12 11 10 9 8 7 5 4 2 1 3 5 7 10
50 50 54 53 51 48 45 43 42 39 35 32 27 23 19 14 11 12 17 19 20 21 24 26 26 25 25 27 26 25 24 23 21 19 17 15 14 13 11 9 8 6 5 3 1 0 2 4 6 8 9 11 14 17
45 49 51 50 48 44 41 39 36 32 29 25 21 17 16 17 24 24 24 23 26 31 32 30 30 30 28 26 23 21 17 14 13 13 12 11 9 7 5 3 2 2 4 5 6 8 9 10 12 13 14 15 17 20
40 43 47 44 40 37 36 34 32 28 25 22 20 20 21 26 26 29 29 30 30 29 27 27 28 26 23 20 18 15 13 12 10 8 5 3 0 3 5 6 7 7 7 9 10 11 11 11 14 16 20 24 26 28
40 40 41 40 37 35 32 29 27 25 24 22 22 24 26 27 29 30 31 30 28 24 21 19 20 21 19 16 15 13 10 7 5 3 2 4 5 7 9 11 12 12 12 11 12 13 15 17 19 22 25 28 29 30
37 37 37 35 33 30 29 27 27 24 22 21 23 21 25 25 24 25 26 26 24 22 19 17 16 14 12 11 10 8 7 6 5 6 6 7 11 13 13 11 10 10 12 14 16 17 20 23 26 27 27 27 25 21
33 32 31 30 30 28 27 25 24 23 23 22 24 24 26 25 23 21 19 19 19 18 17 15 13 10 9 8 8 8 9 10 10 10 10 11 13 13 11 12 13 15 17 19 22 24 27 28 27 26 24 16 15 17
31 29 28 27 27 25 22 18 18 20 24 24 24 24 23 21 20 19 18 16 15 12 11 10 10 10 10 10 10 12 13 14 13 13 15 17 17 16 17 18 19 20 23 26 28 29 30 28 26 16 14 15 17 21
28 27 25 23 22 20 20 18 17 16 16 18 19 20 17 17 17 16 17 18 17 16 16 16 16 16 17 17 18 19 19 17 17 18 19 19 20 20 21 24 26 27 30 32 33 32 29 22 14 14 15 19 23 26
25 23 23 22 22 21 19 15 15 18 19 20 18 19 24 22 20 23 22 20 21 20 21 21 21 20 20 19 21 22 21 21 22 23 23 22 20 22 25 27 29 32 34 33 28 23 14 12 13 16 20 25 28 30
19 17 15 14 14 14 14 15 16 17 15 14 15 19 23 23 21 22 23 24 23 22 22 23 24 23 22 22 22 22 21 21 23 24 24 24 25 27 29 29 28 25 18 12 8 9 11 14 18 22 25 27 29 31

GFSWCAN_250_spd_021.txt.gz
Wind_Speed
36 33 34 36 34 33 33 34 41 47 55 61 66 69 73 78 80 88 88 90 89 90 91 88 87 82 76 73 71 65 62 63 58 53 48 45 43 42 40 38 36 36 35 36 35 32 32 27 24 22 22 24 25 32
38 34 33 36 35 32 33 32 36 42 49 57 62 64 67 74 79 80 87 90 88 89 91 90 88 86 84 79 74 67 72 68 64 60 57 54 50 48 44 46 45 44 42 37 37 37 33 32 29 28 21 21 23 29
37 34 33 35 35 33 32 32 33 37 44 51 57 61 64 67 72 77 80 84 89 88 89 89 91 88 86 86 81 77 74 68 69 69 64 62 58 55 53 55 52 49 45 45 40 40 33 35 34 34 30 23 23 25
35 33 34 33 34 34 33 33 32 34 39 46 51 55 58 62 65 68 76 79 81 89 89 87 89 88 88 86 85 81 75 75 75 75 71 68 65 64 61 60 56 55 51 52 47 42 40 36 36 38 38 34 25 24
33 34 35 34 34 34 34 33 33 32 37 42 47 52 53 56 59 60 63 71 77 78 83 90 87 87 87 87 87 84 84 82 78 77 76 75 74 65 67 67 65 65 58 56 53 43 45 42 45 43 41 41 36 30
33 34 36 36 35 35 34 32 32 31 33 40 45 50 52 52 55 56 57 58 63 70 75 78 87 90 85 85 85 87 86 85 84 83 78 78 74 74 77 76 73 69 63 64 60 58 56 52 50 46 45 44 43 41
35 37 38 37 36 36 35 33 31 32 31 37 43 48 51 51 49 49 53 53 56 59 65 72 78 83 88 85 83 84 85 89 88 87 85 83 80 79 80 80 76 73 70 70 68 66 63 59 56 55 51 49 46 46
40 40 40 39 37 37 36 34 31 31 30 34 40 46 50 49 46 44 46 47 48 51 54 60 67 71 77 84 85 80 79 83 88 89 87 86 85 86 84 85 83 80 75 77 75 71 70 66 65 59 56 55 54 50
45 45 45 42 40 39 38 35 32 31 29 32 38 44 47 48 45 43 43 43 43 42 42 47 52 59 64 69 76 82 83 80 80 85 88 88 88 87 89 89 88 83 80 84 79 77 75 72 67 64 65 61 57 57
50 50 49 46 44 41 38 34 31 30 28 31 37 42 46 46 43 39 39 39 38 36 38 41 44 47 52 58 61 66 74 80 83 81 81 84 89 91 92 91 90 88 88 89 85 85 83 77 73 72 70 70 64 62
45 48 47 44 42 40 35 31 31 30 29 32 37 41 42 42 39 38 34 32 31 31 32 34 37 40 44 48 52 56 60 65 72 79 83 84 83 84 88 91 94 94 93 92 90 88 88 85 82 81 79 73 71 68
37 40 41 41 39 33 30 30 31 29 31 33 37 38 39 38 35 31 28 26 27 28 29 31 34 36 37 39 43 45 49 53 55 62 67 75 80 86 87 87 88 89 92 95 96 95 94 90 86 85 83 79 79 75
28 32 32 32 31 28 27 31 29 30 34 36 38 38 37 34 30 27 26 24 23 24 25 26 28 30 31 31 33 35 38 41 46 49 53 58 61 68 76 81 85 87 89 89 89 89 90 91 91 91 90 90 85 80
21 22 23 24 25 29 31 29 31 34 36 38 38 38 35 32 31 30 28 26 24 24 24 24 23 23 23 23 23 23 25 29 32 37 41 45 48 50 54 59 64 70 74 78 82 85 87 87 86 87 89 91 90 87
20 22 24 26 29 30 30 33 36 38 40 40 38 37 35 36 34 32 30 30 30 29 28 27 25 24 21 19 16 13 12 14 17 21 24 26 29 34 39 44 48 52 55 58 62 69 74 79 82 84 85 84 84 84
25 26 27 28 29 31 35 39 42 43 43 41 39 39 38 37 36 36 35 35 34 32 32 30 27 25 25 23 21 17 15 13 9 7 12 15 15 18 24 29 31 34 37 40 45 50 54 59 62 68 74 79 81 82
24 26 28 32 36 40 43 45 46 44 42 41 42 42 41 41 41 41 39 38 36 34 33 33 31 28 24 21 18 15 12 9 12 11 10 6 1 5 8 12 16 17 19 22 27 31 35 41 46 54 60 64 65 68
29 32 36 39 42 45 47 46 46 44 45 46 46 45 46 45 44 42 39 38 38 36 32 29 26 24 20 18 15 11 8 8 8 5 4 6 8 8 6 4 3 5 7 9 12 17 21 26 32 39 44 50 53 58
34 38 41 44 46 47 46 46 47 50 49 50 50 49 47 47 43 40 40 40 36 31 28 28 23 20 17 15 11 8 5 4 3 1 1 1 3 6 8 11 11 9 6 5 6 7 10 14 18 23 27 31 35 39
40 43 45 46 47 46 47 51 51 51 52 52 51 50 49 45 43 42 40 36 31 27 25 23 20 16 13 10 7 5 5 3 2 2 3 4 4 4 5 7 8 11 13 14 12 11 10 10 10 12 15 18 22 26
45 47 47 47 49 52 54 54 54 54 52 51 51 47 45 44 42 39 36 32 28 25 22 19 16 13 9 6 5 4 5 6 7 6 6 6 9 7 6 7 8 8 10 11 11 9 10 9 9 8 9 10 12 14
46 48 51 52 54 53 54 53 52 52 52 50 46 45 42 39 38 37 32 27 23 19 16 15 14 10 6 4 4 6 8 10 11 10 12 14 16 15 15 15 16 14 13 13 12 11 8 6 4 4 6 7 9 10
49 51 51 52 52 53 53 53 52 50 48 45 43 41 40 39 36 32 27 22 18 16 14 12 10 7 5 6 10 14 15 14 16 17 18 18 17 16 16 15 15 15 15 14 14 13 12 10 8 7 6 5 5 5
51 53 54 54 53 52 51 50 47 45 43 41 40 38 36 33 29 25 21 18 15 13 11 9 5 7 11 14 16 18 18 18 18 16 16 14 13 11 11 10 9 8 8 7 6 5 3 2 0 1 3 4 7 9
52 51 50 49 49 48 47 44 41 40 38 37 34 31 28 26 23 19 17 15 13 12 9 9 13 16 17 18 19 20 18 16 14 12 11 9 8 6 4 3 2 2 3 3 3 4 6 6 7 9 9 10 11 13
48 47 46 45 43 42 41 38 36 34 32 29 26 23 21 20 19 17 16 14 15 17 20 21 22 21 20 17 16 16 15 12 9 7 5 3 1 2 4 5 5 6 7 7 8 8 8 7 8 9 11 12 15 19
43 42 40 39 38 36 34 31 28 25 23 20 18 17 17 17 17 19 23 25 27 26 24 24 24 22 21 18 14 12 10 9 8 6 5 5 7 7 6 9 11 11 10 9 8 8 10 10 11 13 16 19 23 26
39 37 35 34 32 30 27 24 21 19 20 21 23 25 25 25 26 28 29 29 30 28 26 24 22 21 18 15 12 11 9 8 8 9 10 10 11 11 12 11 12 11 11 12 13 13 15 16 18 20 23 26 29 30
34 33 30 28 26 23 22 22 24 26 30 31 28 26 26 25 25 30 27 23 23 19 17 18 17 15 14 13 12 11 12 13 14 15 14 14 15 14 14 14 14 15 15 16 17 19 21 23 26 29 30 32 32 31
28 27 26 25 24 26 26 25 25 24 26 27 27 26 27 25 23 23 23 21 19 17 16 15 14 13 14 13 13 14 16 17 15 14 16 18 18 19 18 18 19 20 20 20 21 23 26 29 31 32 33 31 28 20
23 23 24 24 24 25 25 25 24 23 21 22 22 24 24 22 20 19 19 18 17 15 14 14 13 14 14 15 16 18 18 18 19 21 21 21 23 22 21 22 23 24 24 24 25 26 28 28 28 26 23 19 14 14
19 20 22 23 22 21 22 22 21 21 22 22 23 22 20 18 17 17 17 17 16 16 16 16 16 17 19 20 21 24 25 25 27 27 29 30 28 27 28 29 28 27 26 25 24 24 21 19 17 13 11 12 15 18
19 18 18 17 17 19 19 18 18 17 17 18 18 19 18 18 18 16 16 16 16 16 18 21 22 23 26 27 29 31 29 31 31 32 33 32 30 29 29 28 27 27 28 28 27 25 22 21 20 19 18 18 20 21

GFSWCAN_250_spd_027.txt.gz
Wind_Speed
48 49 49 50 50 46 34 29 32 31 34 36 37 42 53 64 75 82 82 89 87 86 86 85 85 81 77 74 70 69 67 62 62 57 51 49 45 42 37 35 34 29 28 28 31 28 26 31 20 28 27 27 23 16
50 50 51 52 52 48 38 29 31 32 33 36 36 38 43 54 66 77 84 85 90 87 89 92 88 84 81 78 75 73 68 64 64 62 57 53 53 52 47 40 38 31 33 35 36 34 30 33 25 28 31 28 28 32
51 52 53 53 53 49 40 32 29 31 33 35 36 37 40 43 56 68 78 85 86 90 90 92 90 87 87 85 79 77 70 66 69 68 62 61 60 60 54 49 45 37 32 33 36 26 38 37 29 29 30 28 27 29
52 53 55 54 53 48 40 33 29 28 31 33 34 35 38 41 48 61 71 78 84 86 91 91 89 90 87 87 85 83 75 74 73 73 69 67 64 61 57 50 50 40 32 33 31 36 42 39 33 19 39 29 30 31
55 55 55 54 49 44 38 33 28 26 29 31 30 32 36 39 42 52 62 70 78 82 83 88 94 90 91 88 88 85 80 81 80 78 74 71 70 65 60 59 54 50 41 37 37 41 42 40 40 40 25 45 38 37
58 57 53 50 45 40 36 31 26 25 28 29 27 29 33 35 39 46 54 65 71 76 79 82 86 92 90 91 90 86 84 85 84 83 79 77 75 71 66 65 58 53 47 44 42 45 47 47 49 46 44 31 42 48
60 54 49 44 40 36 33 29 25 25 27 27 25 26 30 32 34 41 51 57 65 69 74 76 80 84 88 91 89 89 88 86 84 85 82 83 80 73 70 68 66 59 55 53 51 54 57 54 54 51 44 48 47 43
56 49 43 39 36 34 33 30 26 25 26 25 23 23 26 27 30 38 45 53 57 62 66 69 73 78 80 83 88 91 88 87 86 84 83 85 87 80 76 74 70 66 65 61 58 57 58 59 58 58 58 55 51 46
51 48 44 42 41 38 36 34 31 27 26 24 22 20 22 24 29 33 41 48 52 56 58 62 67 69 70 75 78 81 86 89 87 85 85 85 83 82 81 80 77 70 66 65 66 64 64 65 64 65 65 62 58 55
55 52 50 49 46 45 42 39 35 30 26 23 21 21 20 22 27 31 37 43 47 49 51 52 57 61 64 68 70 73 75 78 84 87 84 82 84 83 83 83 80 77 72 71 69 71 72 73 72 69 67 66 63 62
47 46 46 47 47 48 47 44 38 32 28 25 20 19 19 23 26 31 36 40 43 44 43 45 49 52 54 52 57 60 65 69 74 78 80 79 82 81 82 80 80 83 83 79 75 74 75 76 79 76 75 75 72 68
39 39 39 41 44 44 46 44 39 33 25 21 22 21 21 23 27 31 36 38 38 37 36 37 39 41 43 42 44 49 53 59 65 68 71 76 79 80 79 77 81 84 83 82 81 80 81 81 82 80 78 80 78 76
31 33 35 36 37 39 41 40 34 30 27 21 20 20 21 24 28 32 35 36 34 31 29 29 31 35 34 34 39 41 45 47 52 55 62 66 70 73 78 78 76 77 79 83 85 84 84 86 87 87 86 86 84 81
27 31 32 32 34 34 34 33 31 27 23 21 23 21 23 25 28 32 34 34 30 30 27 25 25 28 31 34 36 38 39 36 40 42 48 53 58 63 66 68 73 76 77 78 78 80 83 86 88 90 91 91 90 86
26 27 27 29 30 31 31 29 29 27 24 24 23 23 25 29 33 33 33 30 28 24 22 23 25 27 29 29 31 29 27 27 30 33 37 39 41 45 47 50 55 61 67 72 76 79 81 82 84 87 88 88 87 87
21 23 24 28 31 32 32 32 31 28 26 26 26 28 29 31 31 30 29 25 20 18 18 20 21 21 23 23 24 25 26 25 24 24 25 25 29 34 37 40 44 48 52 57 61 66 70 74 78 81 81 82 80 78
24 26 29 32 34 35 37 37 33 32 30 29 30 32 35 36 35 31 26 25 23 24 24 25 26 25 23 22 19 17 18 19 18 18 20 21 23 24 27 29 33 37 40 42 45 48 50 52 55 58 60 63 62 64
25 27 30 34 37 39 38 36 35 33 33 34 35 38 39 37 34 31 29 30 32 33 32 30 29 28 27 26 23 20 18 16 15 15 13 12 9 11 12 14 17 21 24 29 32 35 37 39 41 42 42 44 47 48
24 28 32 34 37 38 38 37 37 37 39 41 43 41 40 38 36 38 40 41 39 38 39 37 35 32 29 26 24 22 20 18 17 16 14 11 11 9 6 4 4 4 7 9 12 16 19 23 22 24 28 32 35 40
28 29 32 34 36 37 40 41 43 46 48 47 44 43 44 45 46 45 43 44 43 41 39 35 31 28 24 22 20 18 17 16 15 12 10 9 7 4 3 3 1 4 5 4 4 5 8 9 11 13 13 19 27 31
33 36 38 41 43 45 48 51 49 47 47 50 51 51 51 49 48 50 46 43 39 37 33 30 26 23 19 17 16 15 15 13 12 9 7 6 5 3 2 2 1 3 3 5 6 7 8 5 2 5 9 13 20 30
42 45 49 50 52 52 52 51 52 50 51 52 53 52 52 52 48 45 42 39 35 32 28 24 21 18 15 13 14 14 16 16 14 12 9 8 10 11 10 10 10 7 6 6 5 5 7 8 8 6 7 11 18 27
48 47 47 49 50 50 51 53 56 56 55 54 53 53 49 47 43 40 37 34 31 27 23 19 16 14 16 16 17 18 17 16 17 15 14 13 13 14 13 12 11 11 10 10 10 11 11 10 9 7 7 7 9 12
49 53 52 51 52 54 56 55 55 54 54 54 50 48 45 41 39 35 32 28 25 22 19 15 14 14 18 21 21 20 19 18 16 14 13 13 12 8 9 8 7 7 7 7 7 7 7 6 4 3 1 2 3 5
52 52 54 55 55 54 53 53 53 53 49 47 45 43 40 36 33 30 27 23 21 18 14 13 16 20 22 21 20 19 17 13 11 10 8 8 6 6 7 7 8 8 9 9 9 9 9 9 8 8 7 7 6 7
53 52 52 52 52 51 50 50 48 45 44 42 40 37 33 30 27 24 22 20 18 15 14 16 19 21 21 20 18 16 13 11 9 7 5 3 4 7 10 10 9 12 13 14 13 13 13 13 12 10 10 11 12 13
51 49 49 48 47 46 45 43 41 40 38 36 33 29 26 23 21 19 16 15 14 14 15 17 17 17 16 15 14 11 8 6 4 2 1 4 7 10 13 14 15 16 16 16 16 16 15 15 15 16 17 17 19 20
43 43 43 42 40 39 38 37 36 34 31 28 24 21 19 17 14 13 12 15 16 17 17 18 16 14 13 9 7 5 2 2 3 4 6 8 11 14 14 16 17 18 20 21 21 22 22 21 22 23 24 24 25 26
35 34 33 33 33 32 31 29 27 24 21 19 17 15 14 13 13 15 17 17 16 16 15 13 11 9 8 8 7 4 5 7 8 10 13 15 16 16 18 20 21 23 24 25 26 26 27 28 28 27 27 27 28 28
28 27 25 24 22 22 20 18 18 17 16 15 13 14 16 17 18 18 18 16 14 11 8 7 7 6 5 6 7 9 10 12 11 14 18 22 24 25 26 27 29 31 31 30 29 30 30 31 30 30 30 30 29 28
20 19 17 15 14 13 13 13 14 14 14 16 19 22 21 17 15 13 12 11 11 11 9 8 7 9 10 11 10 11 13 15 19 22 25 28 29 31 33 36 36 37 36 34 34 33 33 33 33 32 30 29 30 29
15 15 15 16 16 16 16 17 16 14 13 14 18 24 23 19 14 12 11 9 8 10 11 12 12 13 12 13 14 17 19 22 26 28 31 33 35 37 37 36 35 35 36 36 35 34 34 33 32 31 31 30 30 30
12 13 15 16 17 16 13 12 13 12 11 12 12 15 18 20 19 19 16 14 15 16 16 15 15 15 15 17 20 25 27 30 32 35 36 38 36 34 32 31 32 34 36 34 33 32 32 32 31 30 31 31 32 31

GFSWCAN_250_spd_030.txt.gz
Wind_Speed
48 47 44 46 46 47 47 50 47 38 33 30 35 40 45 51 57 67 77 87 87 82 86 85 80 76 73 70 73 70 66 59 56 52 50 47 43 40 37 36 31 20 15 10 11 16 28 36 27 24 23 22 20 23
42 42 45 46 47 48 49 51 46 39 30 31 33 38 45 48 51 60 69 80 89 86 84 86 86 82 80 75 73 73 66 61 61 60 55 53 49 47 41 36 33 29 17 17 15 20 23 23 23 21 22 28 32 24
40 41 45 46 47 49 50 50 46 39 28 30 32 36 43 48 49 54 63 72 83 90 88 85 89 87 84 81 75 72 73 69 65 63 62 61 60 53 44 40 37 30 28 22 24 24 27 28 28 25 34 38 43 23
40 42 46 47 49 51 51 48 46 38 29 28 31 36 41 46 48 50 57 66 77 86 91 89 84 84 89 87 84 79 74 75 74 71 69 67 64 59 53 48 46 40 39 35 30 27 31 34 36 29 40 39 28 35
44 46 48 50 52 52 49 46 45 37 30 28 30 34 40 44 45 48 52 63 71 79 85 93 90 88 88 91 88 84 82 77 77 76 73 72 70 65 61 57 52 44 43 41 38 32 30 33 40 41 45 43 33 32
50 52 53 54 53 51 47 44 43 36 29 27 28 32 37 42 44 44 49 54 64 71 80 89 91 91 88 90 90 87 88 85 80 77 76 74 72 71 67 62 58 55 47 47 45 41 35 35 35 48 47 46 44 36
57 57 57 56 54 51 47 44 42 33 27 25 27 30 34 40 42 42 44 50 54 62 72 82 88 88 89 89 89 90 89 89 87 84 81 80 79 73 68 65 61 59 53 53 49 47 47 44 42 49 51 55 53 53
61 60 59 57 54 50 47 43 38 30 25 23 25 28 32 37 40 38 39 45 48 53 65 73 81 84 84 86 90 89 90 90 89 89 88 87 84 75 72 71 67 64 59 57 57 55 53 54 52 57 59 58 54 54
62 60 58 55 51 47 43 40 36 29 25 22 24 28 30 34 35 37 37 40 44 48 57 67 72 77 81 83 85 89 91 89 89 89 89 89 89 81 79 80 77 72 66 60 60 62 60 62 61 62 64 62 64 61
54 53 52 51 47 43 40 40 36 32 28 23 23 27 29 31 32 33 34 37 41 46 52 59 67 70 74 78 79 82 84 88 90 88 89 89 87 86 84 84 82 75 72 71 70 68 71 71 67 68 69 72 69 66
48 50 50 50 48 46 43 42 39 36 33 27 22 24 27 28 27 29 29 32 37 43 48 53 57 61 64 69 72 74 76 79 82 85 87 87 87 86 86 85 84 84 82 82 83 78 72 72 74 73 74 76 78 78
42 43 45 45 46 47 47 45 42 39 30 25 22 25 25 25 24 25 25 29 34 38 44 46 48 52 55 59 62 65 68 69 72 73 76 81 84 87 87 86 84 85 86 86 83 81 82 82 80 79 79 80 79 79
35 37 39 39 39 41 44 44 42 39 33 30 26 24 22 22 21 22 23 26 32 36 41 42 44 45 45 48 48 51 56 59 60 63 66 71 75 77 79 80 85 87 88 86 83 83 83 84 84 82 81 80 81 81
29 32 32 32 34 37 39 39 39 37 33 28 24 23 22 22 22 23 24 30 34 36 36 36 36 34 37 38 41 44 47 47 49 51 54 59 64 68 72 72 72 73 76 81 84 83 83 84 84 86 86 85 85 85
24 26 29 30 32 33 35 36 36 34 31 27 27 23 23 24 23 25 29 33 34 33 33 31 29 28 29 30 33 38 39 37 38 38 40 44 48 51 54 59 61 63 67 71 74 75 77 79 81 84 86 88 89 88
22 25 27 28 30 31 33 34 34 33 32 31 30 28 26 24 24 27 32 33 33 31 28 26 25 25 26 26 27 25 24 27 28 29 29 29 33 37 39 41 45 50 54 59 62 67 70 73 76 80 81 81 82 83
18 20 25 28 30 31 35 38 39 39 35 34 31 28 25 26 29 29 32 33 29 26 22 21 21 21 20 21 22 23 22 19 16 18 20 21 20 22 24 26 28 32 35 40 44 48 52 55 59 64 68 71 74 77
24 27 29 32 36 39 41 40 42 39 36 32 29 29 30 31 34 35 32 28 24 22 21 21 22 23 23 21 20 19 18 19 18 15 14 14 15 14 14 15 18 21 25 28 32 35 39 43 47 49 52 57 59 57
24 27 30 34 38 41 43 42 39 36 33 33 32 33 35 38 38 34 30 27 27 27 27 28 29 29 27 24 22 21 20 18 17 15 13 12 10 7 6 6 8 10 12 14 18 21 25 28 31 33 38 39 40 40
25 27 33 36 37 41 41 38 37 37 37 37 39 41 42 39 37 36 36 37 38 38 36 34 32 32 31 29 28 27 26 24 22 18 15 12 11 9 6 6 5 3 4 6 8 8 10 12 14 17 19 22 24 24
32 33 35 37 37 37 37 38 39 41 46 47 48 47 46 46 45 44 44 43 42 40 37 35 31 29 27 26 24 21 19 18 17 14 12 10 8 6 4 2 2 2 4 6 7 6 7 5 4 4 6 7 4 6
37 38 39 41 41 43 47 49 52 52 49 49 50 51 51 50 49 49 46 42 39 36 33 30 26 24 22 20 18 16 15 14 15 13 9 9 8 6 6 7 6 6 6 7 9 11 10 9 10 8 6 3 2 4
42 43 45 47 50 50 50 51 53 54 55 55 55 54 53 51 49 45 41 37 34 30 27 24 22 21 21 19 18 19 19 18 17 17 16 16 16 14 11 9 7 5 5 7 8 8 8 9 10 9 8 7 5 3
48 50 50 51 52 53 54 55 56 58 58 56 56 52 49 46 42 39 36 32 29 25 22 21 23 23 23 23 24 23 22 21 19 17 15 14 13 10 7 5 5 5 7 8 8 9 8 8 7 6 4 3 2 3
54 54 54 55 57 59 58 58 58 58 56 52 49 46 43 40 38 34 30 26 22 20 18 20 21 23 25 26 25 23 21 19 16 15 12 10 7 7 7 7 6 8 9 11 12 12 12 12 12 11 10 8 9 9
56 57 57 56 56 56 57 56 54 50 48 45 43 39 36 33 30 27 25 22 19 17 17 19 22 25 25 23 21 18 14 12 10 9 8 5 5 6 8 9 9 10 11 13 14 14 14 14 13 12 12 12 13 14
52 53 54 54 53 51 49 48 45 43 41 38 35 32 29 27 25 22 19 17 16 17 19 23 25 24 22 20 17 14 10 8 5 3 1 2 5 8 11 13 13 15 16 18 19 20 21 21 21 20 20 20 20 21
48 50 49 47 46 45 43 42 39 36 33 31 28 26 24 21 19 16 15 15 19 23 22 20 20 19 18 15 11 8 6 3 1 2 5 8 10 13 14 16 18 21 22 24 25 26 27 27 26 25 26 27 28 27
41 40 38 37 37 36 35 33 31 28 26 23 21 19 17 15 13 13 13 17 23 22 21 20 17 14 12 10 8 4 2 3 3 3 6 11 16 19 21 23 24 26 28 30 32 32 32 32 31 30 30 29 29 30
32 30 29 29 29 28 25 23 21 18 16 14 13 11 11 11 14 17 20 20 20 18 16 13 10 8 4 3 3 2 4 7 8 9 14 18 21 24 27 29 32 34 36 36 34 32 32 32 33 33 33 34 32 31
25 24 23 22 20 18 15 12 11 9 9 8 9 12 15 16 19 19 19 20 19 15 12 11 7 3 4 6 8 8 8 10 13 17 21 24 27 31 33 34 34 34 32 31 30 31 32 32 31 31 30 30 31 29
15 15 14 13 13 13 11 11 11 11 11 13 18 22 23 20 19 16 14 11 11 12 9 7 6 7 10 12 11 12 13 15 20 24 27 30 32 36 35 32 31 31 31 31 32 34 34 32 31 29 27 26 26 27
14 14 15 15 15 16 16 18 16 14 12 13 12 12 12 9 9 8 9 9 8 9 11 12 13 12 12 13 14 17 19 23 27 30 31 35 35 31 30 31 33 32 32 34 35 35 34 32 31 30 28 27 26 25

GFSWCAN_250_spd_033.txt.gz
Wind_Speed
38 40 42 47 48 46 45 45 45 44 44 45 46 45 36 35 42 48 57 69 77 89 89 85 85 84 77 70 64 59 59 58 55 59 57 52 45 43 44 48 45 39 28 22 19 25 23 27 28 23 21 33 33 31
41 41 43 40 41 44 47 47 45 43 45 45 46 46 35 33 41 46 52 62 73 84 93 90 88 86 81 76 72 67 63 63 61 59 58 51 43 39 44 45 43 38 30 25 21 19 20 28 30 29 28 35 31 28
42 41 42 44 43 42 42 43 44 43 44 46 48 43 33 33 39 44 50 55 67 77 91 95 90 88 86 81 79 73 68 64 63 59 58 53 44 41 42 46 45 38 31 28 24 19 19 22 19 21 26 34 30 29
43 40 39 42 45 43 41 41 42 43 44 46 47 39 31 32 38 43 50 54 60 70 80 92 92 89 87 85 83 79 74 69 66 65 63 61 55 49 48 50 48 41 37 30 27 23 24 25 28 30 30 32 33 42
43 42 42 40 41 43 42 41 42 43 46 46 43 35 29 31 37 43 47 51 55 61 72 83 93 91 88 87 86 82 81 78 74 69 66 66 62 56 51 53 50 44 39 34 34 31 31 32 36 36 32 34 35 44
39 41 42 44 44 45 44 43 44 46 47 45 42 33 29 31 35 41 46 50 52 56 66 75 83 95 92 88 87 86 83 80 79 73 70 68 67 66 62 58 55 51 48 44 43 40 39 38 40 36 39 45 43 39
43 43 42 43 44 46 47 47 47 47 47 43 40 31 29 30 33 39 45 49 51 53 60 68 74 85 93 90 87 90 89 83 82 80 76 73 72 71 68 65 63 62 60 56 54 50 49 49 51 49 46 44 44 44
50 50 51 50 51 52 51 51 51 49 47 41 37 29 27 29 30 36 42 47 48 50 55 61 67 74 85 93 90 86 88 90 87 85 82 80 76 73 70 69 70 69 67 66 64 60 57 52 53 55 54 50 49 46
59 59 58 58 58 57 56 55 52 48 45 40 33 27 26 27 31 34 38 42 44 44 49 54 60 67 74 86 92 90 87 87 89 89 87 86 82 77 74 76 78 74 72 72 71 69 65 63 60 60 60 58 56 52
61 65 66 65 64 62 59 56 53 49 44 37 30 26 25 26 29 31 35 37 40 42 45 50 52 56 65 73 83 90 91 88 88 89 89 91 89 86 81 79 78 77 76 75 75 73 71 71 65 62 65 63 61 61
54 57 59 61 62 60 58 54 50 45 40 33 28 25 24 26 29 30 33 35 37 39 41 44 48 48 55 64 72 79 85 88 88 87 87 90 91 90 88 86 85 84 80 78 77 77 77 76 71 66 66 69 68 67
47 51 55 56 55 54 52 50 47 42 36 32 30 29 26 28 29 30 33 34 34 36 39 40 43 46 51 58 65 71 76 81 84 84 86 89 89 91 91 91 91 92 90 87 84 82 79 77 74 73 71 71 75 75
40 44 46 47 49 50 50 47 43 40 38 34 32 29 27 27 27 30 31 30 31 33 36 39 41 43 47 53 58 62 67 71 74 78 79 82 86 89 91 92 93 93 92 91 89 87 86 85 84 81 78 75 76 77
32 36 39 42 44 45 45 43 42 43 40 37 32 28 26 26 27 27 28 27 28 31 34 36 38 41 44 44 47 52 56 58 63 67 71 74 76 78 82 86 90 91 91 91 91 92 92 90 88 88 87 86 86 86
28 30 32 35 38 39 41 42 42 42 41 37 30 26 28 29 28 28 26 26 28 30 32 33 34 34 35 36 37 41 44 47 51 53 54 57 59 60 63 66 71 75 79 81 84 87 90 90 90 90 89 89 91 92
22 25 28 31 32 34 38 41 41 41 38 32 33 34 30 29 29 26 24 24 26 28 28 29 30 31 30 30 30 31 34 36 37 38 40 42 43 47 49 51 53 57 61 64 67 71 73 75 77 79 80 82 86 88
23 25 27 29 32 33 34 37 39 37 33 37 37 35 34 30 25 22 23 22 23 26 27 27 26 26 26 27 30 31 29 28 27 27 29 32 32 34 36 37 38 40 42 45 49 53 56 59 62 64 66 69 71 74
21 23 25 26 30 32 35 37 40 41 43 41 37 34 31 26 21 22 25 28 29 28 26 24 23 24 25 25 23 22 22 24 24 23 21 20 21 21 21 21 22 24 26 29 32 36 39 43 46 49 53 57 61 63
22 25 28 29 31 33 35 37 40 43 43 42 38 32 27 26 29 31 32 30 29 27 26 24 23 20 20 20 22 24 23 22 20 17 15 14 14 13 13 13 12 12 13 15 18 21 25 29 32 35 39 43 46 49
24 25 29 32 33 36 40 43 43 42 39 34 30 27 28 30 31 33 33 31 28 24 22 22 24 26 26 25 24 23 22 19 18 17 15 15 13 11 8 7 6 6 5 5 6 9 13 16 20 23 26 29 31 35
29 32 32 33 35 36 37 38 36 35 35 34 34 37 37 37 35 33 31 31 32 33 33 31 29 27 26 25 24 23 24 24 23 20 17 13 11 9 7 5 4 3 4 6 7 8 9 7 7 8 11 14 16 18
33 33 34 34 35 35 34 36 38 38 39 40 42 43 41 38 38 40 41 39 37 35 34 34 32 30 28 26 27 26 23 20 17 15 12 11 9 7 8 8 6 5 5 5 7 7 7 7 7 6 7 6 5 5
38 38 39 38 38 38 39 40 41 43 45 45 45 46 47 46 44 43 42 40 38 35 32 30 27 26 25 24 22 20 19 17 16 14 14 15 16 14 11 8 6 4 3 5 7 9 11 11 11 11 11 11 10 8
37 38 38 40 42 43 43 45 47 48 49 50 50 50 50 48 45 42 38 34 31 29 28 27 26 24 23 22 21 20 21 22 21 20 19 16 12 8 5 5 4 5 6 8 9 10 11 12 12 13 12 11 10 10
47 48 49 49 49 49 50 51 53 53 53 52 52 49 45 42 38 35 32 29 27 26 27 26 25 26 27 25 26 27 25 23 20 17 15 13 10 8 6 6 6 8 10 11 12 12 12 13 14 13 12 12 12 12
50 51 52 53 54 54 54 54 54 53 50 47 44 41 38 35 31 28 25 23 22 23 24 26 28 29 26 25 22 20 18 15 13 10 8 7 7 6 7 8 8 9 10 13 14 14 15 15 15 16 17 16 15 16
53 54 55 55 55 54 51 49 47 45 43 40 37 33 30 28 25 23 21 20 21 24 27 27 27 26 24 23 21 19 15 12 9 6 4 3 3 6 7 9 12 14 17 19 21 22 23 24 24 23 23 23 22 22
53 52 51 49 46 46 44 42 40 37 35 32 30 28 26 23 21 21 22 22 23 24 25 26 24 22 20 17 14 11 9 7 6 5 3 3 7 10 12 15 19 22 23 25 26 28 30 29 28 27 26 25 26 26
45 43 42 41 40 39 36 33 32 30 29 27 25 23 20 18 18 20 23 24 24 23 22 21 20 19 16 14 12 9 7 2 2 2 3 7 11 15 18 21 25 29 31 31 31 30 28 26 27 28 28 28 27 28
37 36 35 34 32 31 29 26 24 23 21 19 18 16 15 15 17 21 25 23 23 22 22 21 18 14 12 9 6 5 5 4 3 5 9 12 15 20 24 27 31 33 31 30 30 28 28 29 30 30 30 29 30 30
28 27 26 25 23 20 18 16 14 13 12 11 10 11 13 16 18 21 20 21 21 19 18 16 12 9 7 7 5 5 6 8 10 12 15 19 22 28 28 33 32 28 28 30 29 29 31 32 33 33 31 29 27 26
20 19 18 16 14 12 10 9 8 8 9 11 14 14 15 14 17 19 17 17 17 14 10 7 5 5 6 9 11 9 10 10 13 16 19 23 28 29 32 35 31 29 28 30 32 31 33 36 37 35 32 29 28 27
12 12 11 11 12 10 10 12 13 13 13 15 17 17 17 18 18 18 16 15 12 10 11 10 10 11 12 13 14 15 17 19 21 24 27 31 32 36 38 34 32 32 33 33 33 35 37 39 38 36 34 32 31 30